Time,TemperatureF,DewpointF,PressureIn,WindDirection,WindDirectionDegrees,WindSpeedMPH,WindSpeedGustMPH,Humidity,HourlyPrecipIn,Conditions,Clouds,dailyrainin,SoftwareType,DateUTC
2013-01-11 00:04:00,35.6,34.8,29.70,ESE,121,0.0,1.0,97,0.00,,SKC,0.00,VWS V14.01,2013-01-11 06:04:00,
2013-01-11 00:09:00,35.6,34.8,29.70,ESE,121,0.0,0.0,97,0.00,,SKC,0.00,VWS V14.01,2013-01-11 06:09:00,
2013-01-11 00:14:00,35.7,34.9,29.69,ESE,121,2.0,2.0,97,0.00,,SKC,0.00,VWS V14.01,2013-01-11 06:14:00,
2013-01-11 00:19:00,35.7,34.9,29.70,ESE,121,0.0,0.0,97,0.00,,SKC,0.00,VWS V14.01,2013-01-11 06:19:00,
2013-01-11 00:24:00,35.9,35.1,29.69,ESE,121,0.0,0.0,97,0.00,,SKC,0.00,VWS V14.01,2013-01-11 06:24:00,
2013-01-11 00:29:00,35.9,35.1,29.69,ESE,121,0.0,0.0,97,0.00,,SKC,0.00,VWS V14.01,2013-01-11 06:29:00,
2013-01-11 00:34:00,36.0,35.2,29.69,ESE,121,0.0,0.0,97,0.00,,SKC,0.00,VWS V14.01,2013-01-11 06:34:00,
2013-01-11 00:39:00,36.1,35.3,29.69,ESE,121,0.0,0.0,97,0.00,,SKC,0.00,VWS V14.01,2013-01-11 06:39:00,
2013-01-11 00:44:00,36.2,35.4,29.69,ESE,121,0.0,1.0,97,0.00,,SKC,0.00,VWS V14.01,2013-01-11 06:44:00,
2013-01-11 00:49:00,36.3,35.5,29.68,ESE,121,0.0,0.0,97,0.00,,SKC,0.00,VWS V14.01,2013-01-11 06:49:00,
2013-01-11 00:54:00,36.4,35.6,29.67,ESE,121,1.0,3.0,97,0.00,,SKC,0.00,VWS V14.01,2013-01-11 06:54:00,
2013-01-11 00:59:00,36.5,35.7,29.67,ESE,121,2.0,2.0,97,0.00,,SKC,0.00,VWS V14.01,2013-01-11 06:59:00,
2013-01-11 01:04:00,36.6,35.8,29.67,ESE,121,1.0,4.0,97,0.00,,SKC,0.00,VWS V14.01,2013-01-11 07:04:00,
2013-01-11 01:09:00,36.7,35.9,29.68,ESE,121,1.0,2.0,97,0.00,,SKC,0.00,VWS V14.01,2013-01-11 07:09:00,
2013-01-11 01:14:00,36.7,35.9,29.67,ESE,121,3.0,3.0,97,0.00,,SKC,0.00,VWS V14.01,2013-01-11 07:14:00,
2013-01-11 01:19:00,36.8,36.0,29.66,ESE,121,4.0,4.0,97,0.00,,SKC,0.00,VWS V14.01,2013-01-11 07:19:00,
2013-01-11 01:24:00,36.9,36.1,29.67,ESE,121,2.0,4.0,97,0.00,,SKC,0.00,VWS V14.01,2013-01-11 07:24:00,
2013-01-11 01:29:00,37.0,36.2,29.66,ESE,121,5.0,5.0,97,0.00,,SKC,0.00,VWS V14.01,2013-01-11 07:29:00,
2013-01-11 01:34:00,37.1,36.3,29.66,ESE,122,2.0,5.0,97,0.00,,SKC,0.00,VWS V14.01,2013-01-11 07:34:00,
2013-01-11 01:39:00,37.1,36.3,29.65,ESE,123,3.0,5.0,97,0.00,,SKC,0.00,VWS V14.01,2013-01-11 07:39:00,
2013-01-11 01:44:00,37.0,36.2,29.65,SE,124,3.0,4.0,97,0.00,,SKC,0.00,VWS V14.01,2013-01-11 07:44:00,
2013-01-11 01:49:00,36.9,36.1,29.65,SE,126,3.0,3.0,97,0.00,,SKC,0.00,VWS V14.01,2013-01-11 07:49:00,
2013-01-11 01:54:00,36.8,36.0,29.65,SE,126,2.0,2.0,97,0.00,,SKC,0.00,VWS V14.01,2013-01-11 07:54:00,
2013-01-11 01:59:00,36.7,35.9,29.64,SE,126,2.0,3.0,97,0.00,,SKC,0.00,VWS V14.01,2013-01-11 07:59:00,
2013-01-11 02:04:00,36.5,35.7,29.65,SE,126,2.0,4.0,97,0.00,,SKC,0.00,VWS V14.01,2013-01-11 08:04:00,
2013-01-11 02:09:00,36.4,35.6,29.65,SE,126,2.0,3.0,97,0.00,,SKC,0.00,VWS V14.01,2013-01-11 08:09:00,
2013-01-11 02:14:00,36.2,35.4,29.65,SE,126,3.0,3.0,97,0.00,,SKC,0.00,VWS V14.01,2013-01-11 08:14:00,
2013-01-11 02:19:00,36.1,35.3,29.66,SE,126,2.0,4.0,97,0.00,,SKC,0.00,VWS V14.01,2013-01-11 08:19:00,
2013-01-11 02:24:00,36.0,35.2,29.65,SE,126,3.0,3.0,97,0.00,,SKC,0.00,VWS V14.01,2013-01-11 08:24:00,
2013-01-11 02:30:00,35.9,35.1,29.66,SE,126,1.0,1.0,97,0.00,,SKC,0.00,VWS V14.01,2013-01-11 08:30:00,
2013-01-11 02:35:00,35.8,35.0,29.65,SE,126,3.0,3.0,97,0.00,,SKC,0.00,VWS V14.01,2013-01-11 08:35:00,
2013-01-11 02:40:00,35.8,35.0,29.65,SE,126,2.0,3.0,97,0.00,,SKC,0.00,VWS V14.01,2013-01-11 08:40:00,
2013-01-11 02:45:00,35.8,35.0,29.65,SE,126,1.0,1.0,97,0.00,,SKC,0.00,VWS V14.01,2013-01-11 08:45:00,
2013-01-11 02:50:00,35.9,35.1,29.65,SE,126,3.0,3.0,97,0.00,,SKC,0.00,VWS V14.01,2013-01-11 08:50:00,
2013-01-11 02:55:00,35.9,35.1,29.65,SE,126,3.0,3.0,97,0.00,,SKC,0.00,VWS V14.01,2013-01-11 08:55:00,
2013-01-11 03:00:00,35.9,35.1,29.64,SE,126,3.0,3.0,97,0.00,,SKC,0.00,VWS V14.01,2013-01-11 09:00:00,
2013-01-11 03:05:00,35.9,35.1,29.63,SE,126,1.0,3.0,97,0.00,,SKC,0.00,VWS V14.01,2013-01-11 09:05:00,
2013-01-11 03:10:00,35.9,35.1,29.64,SE,126,1.0,2.0,97,0.00,,SKC,0.00,VWS V14.01,2013-01-11 09:10:00,
2013-01-11 03:15:00,35.8,35.0,29.64,SE,126,4.0,4.0,97,0.00,,SKC,0.00,VWS V14.01,2013-01-11 09:15:00,
2013-01-11 03:20:00,35.8,35.0,29.63,SE,126,4.0,4.0,97,0.00,,SKC,0.00,VWS V14.01,2013-01-11 09:20:00,
2013-01-11 03:25:00,35.8,35.0,29.63,SE,126,1.0,2.0,97,0.00,,SKC,0.00,VWS V14.01,2013-01-11 09:25:00,
2013-01-11 03:30:00,35.8,35.0,29.63,SE,126,1.0,5.0,97,0.00,,SKC,0.00,VWS V14.01,2013-01-11 09:30:00,
2013-01-11 03:35:00,35.8,35.0,29.63,SE,126,5.0,5.0,97,0.00,,SKC,0.00,VWS V14.01,2013-01-11 09:35:00,
2013-01-11 03:40:00,35.7,34.9,29.63,SE,126,0.0,2.0,97,0.00,,SKC,0.00,VWS V14.01,2013-01-11 09:40:00,
2013-01-11 03:45:00,35.7,34.9,29.63,SE,126,2.0,5.0,97,0.00,,SKC,0.00,VWS V14.01,2013-01-11 09:45:00,
2013-01-11 03:50:00,35.7,34.9,29.62,SE,126,2.0,3.0,97,0.00,,SKC,0.00,VWS V14.01,2013-01-11 09:50:00,
2013-01-11 03:55:00,35.6,34.8,29.64,SE,126,0.0,0.0,97,0.00,,SKC,0.00,VWS V14.01,2013-01-11 09:55:00,
2013-01-11 04:00:00,35.6,34.8,29.63,SE,126,2.0,3.0,97,0.00,,SKC,0.00,VWS V14.01,2013-01-11 10:00:00,
2013-01-11 04:05:00,35.5,34.7,29.63,SE,126,4.0,5.0,97,0.00,,SKC,0.00,VWS V14.01,2013-01-11 10:05:00,
2013-01-11 04:10:00,35.5,34.7,29.62,SE,126,3.0,4.0,97,0.00,,SKC,0.00,VWS V14.01,2013-01-11 10:10:00,
2013-01-11 04:15:00,35.3,34.5,29.61,SE,126,3.0,3.0,97,0.00,,SKC,0.00,VWS V14.01,2013-01-11 10:15:00,
2013-01-11 04:20:00,35.3,34.5,29.61,SE,126,4.0,5.0,97,0.00,,SKC,0.00,VWS V14.01,2013-01-11 10:20:00,
2013-01-11 04:25:00,35.2,34.4,29.60,SE,126,6.0,6.0,97,0.00,,SKC,0.00,VWS V14.01,2013-01-11 10:25:00,
2013-01-11 04:30:00,35.3,34.5,29.61,SE,126,4.0,5.0,97,0.00,,SKC,0.00,VWS V14.01,2013-01-11 10:30:00,
2013-01-11 04:35:00,35.4,34.6,29.60,SE,128,5.0,6.0,97,0.00,,SKC,0.00,VWS V14.01,2013-01-11 10:35:00,
2013-01-11 04:40:00,35.5,34.7,29.60,SE,128,2.0,7.0,97,0.00,,SKC,0.00,VWS V14.01,2013-01-11 10:40:00,
2013-01-11 04:45:00,35.6,34.8,29.60,SE,128,3.0,5.0,97,0.00,,SKC,0.00,VWS V14.01,2013-01-11 10:45:00,
2013-01-11 04:50:00,35.7,34.9,29.60,SE,128,0.0,3.0,97,0.00,,SKC,0.00,VWS V14.01,2013-01-11 10:50:00,
2013-01-11 04:55:00,35.8,35.0,29.58,SE,128,3.0,6.0,97,0.00,,SKC,0.00,VWS V14.01,2013-01-11 10:55:00,
2013-01-11 05:00:00,35.9,35.1,29.58,SE,128,5.0,7.0,97,0.00,,SKC,0.00,VWS V14.01,2013-01-11 11:00:00,
2013-01-11 05:05:00,36.2,35.4,29.58,SE,128,4.0,6.0,97,0.00,,SKC,0.00,VWS V14.01,2013-01-11 11:05:00,
2013-01-11 05:10:00,36.5,35.7,29.58,SE,128,3.0,5.0,97,0.00,,SKC,0.00,VWS V14.01,2013-01-11 11:10:00,
2013-01-11 05:15:00,36.7,35.9,29.58,SE,128,3.0,7.0,97,0.00,,SKC,0.00,VWS V14.01,2013-01-11 11:15:00,
2013-01-11 05:20:00,36.8,36.0,29.58,SE,128,3.0,4.0,97,0.00,,SKC,0.00,VWS V14.01,2013-01-11 11:20:00,
2013-01-11 05:25:00,36.9,36.1,29.58,SE,128,3.0,3.0,97,0.00,,SKC,0.00,VWS V14.01,2013-01-11 11:25:00,
2013-01-11 05:30:00,36.9,36.1,29.58,SE,128,0.0,4.0,97,0.00,,SKC,0.00,VWS V14.01,2013-01-11 11:30:00,
2013-01-11 05:35:00,37.0,36.2,29.58,SE,128,1.0,4.0,97,0.00,,SKC,0.00,VWS V14.01,2013-01-11 11:35:00,
2013-01-11 05:40:00,37.1,36.3,29.57,SE,128,4.0,6.0,97,0.00,,SKC,0.00,VWS V14.01,2013-01-11 11:40:00,
2013-01-11 05:45:00,37.1,36.3,29.57,SE,128,3.0,8.0,97,0.00,,SKC,0.00,VWS V14.01,2013-01-11 11:45:00,
2013-01-11 05:50:00,37.0,36.2,29.57,SE,129,3.0,6.0,97,0.00,,SKC,0.00,VWS V14.01,2013-01-11 11:50:00,
2013-01-11 05:55:00,37.0,36.2,29.56,SE,128,5.0,8.0,97,0.00,,SKC,0.00,VWS V14.01,2013-01-11 11:55:00,
2013-01-11 06:00:00,37.1,36.3,29.56,SE,128,4.0,7.0,97,0.00,,SKC,0.00,VWS V14.01,2013-01-11 12:00:00,
2013-01-11 06:05:00,37.1,36.3,29.56,SE,128,3.0,6.0,97,0.00,,SKC,0.00,VWS V14.01,2013-01-11 12:05:00,
2013-01-11 06:11:00,37.2,36.4,29.56,SE,128,3.0,5.0,97,0.00,,SKC,0.00,VWS V14.01,2013-01-11 12:11:00,
2013-01-11 06:16:00,37.3,36.5,29.57,SE,130,2.0,5.0,97,0.00,,SKC,0.00,VWS V14.01,2013-01-11 12:16:00,
2013-01-11 06:21:00,37.3,36.5,29.55,SE,131,1.0,2.0,97,0.00,,SKC,0.00,VWS V14.01,2013-01-11 12:21:00,
2013-01-11 06:26:00,37.3,36.5,29.56,SE,131,4.0,6.0,97,0.00,,SKC,0.00,VWS V14.01,2013-01-11 12:26:00,
2013-01-11 06:31:00,37.4,36.6,29.55,SE,130,4.0,6.0,97,0.00,,SKC,0.00,VWS V14.01,2013-01-11 12:31:00,
2013-01-11 06:36:00,37.3,36.5,29.55,SE,126,5.0,5.0,97,0.00,,SKC,0.00,VWS V14.01,2013-01-11 12:36:00,
2013-01-11 06:41:00,37.4,36.6,29.54,ESE,121,7.0,10.0,97,0.00,,SKC,0.00,VWS V14.01,2013-01-11 12:41:00,
2013-01-11 06:46:00,37.3,36.5,29.54,ESE,121,4.0,6.0,97,0.00,,SKC,0.00,VWS V14.01,2013-01-11 12:46:00,
2013-01-11 06:51:00,37.3,36.5,29.55,ESE,122,5.0,5.0,97,0.00,,SKC,0.00,VWS V14.01,2013-01-11 12:51:00,
2013-01-11 06:56:00,37.3,36.5,29.55,ESE,121,5.0,6.0,97,0.00,,SKC,0.00,VWS V14.01,2013-01-11 12:56:00,
2013-01-11 07:01:00,37.3,36.5,29.54,ESE,119,5.0,6.0,97,0.00,,SKC,0.00,VWS V14.01,2013-01-11 13:01:00,
2013-01-11 07:06:00,37.2,36.4,29.55,ESE,119,6.0,9.0,97,0.00,,SKC,0.00,VWS V14.01,2013-01-11 13:06:00,
2013-01-11 07:11:00,37.2,36.4,29.54,ESE,117,9.0,9.0,97,0.00,,SKC,0.00,VWS V14.01,2013-01-11 13:11:00,
2013-01-11 07:16:00,37.2,36.4,29.55,ESE,119,5.0,10.0,97,0.00,,SKC,0.00,VWS V14.01,2013-01-11 13:16:00,
2013-01-11 07:21:00,37.4,36.6,29.54,ESE,120,5.0,10.0,97,0.00,,SKC,0.00,VWS V14.01,2013-01-11 13:21:00,
2013-01-11 07:26:00,37.5,37.0,29.53,ESE,122,3.0,7.0,98,0.00,,SKC,0.00,VWS V14.01,2013-01-11 13:26:00,
2013-01-11 07:31:00,37.6,37.1,29.54,ESE,122,5.0,5.0,98,0.00,,SKC,0.00,VWS V14.01,2013-01-11 13:31:00,
2013-01-11 07:36:00,37.5,37.0,29.54,ESE,123,8.0,8.0,98,0.00,,SKC,0.00,VWS V14.01,2013-01-11 13:36:00,
2013-01-11 07:41:00,37.6,37.1,29.54,SE,125,2.0,4.0,98,0.00,,SKC,0.00,VWS V14.01,2013-01-11 13:41:00,
2013-01-11 07:46:00,37.7,37.2,29.53,SE,125,7.0,7.0,98,0.00,,SKC,0.00,VWS V14.01,2013-01-11 13:46:00,
2013-01-11 07:51:00,37.8,37.0,29.53,SE,127,3.0,10.0,97,0.00,,SKC,0.00,VWS V14.01,2013-01-11 13:51:00,
2013-01-11 07:56:00,37.9,37.1,29.53,SE,126,8.0,8.0,97,0.00,,SKC,0.00,VWS V14.01,2013-01-11 13:56:00,
2013-01-11 08:01:00,38.0,37.2,29.53,SE,127,4.0,6.0,97,0.00,,SKC,0.00,VWS V14.01,2013-01-11 14:01:00,
2013-01-11 08:06:00,38.1,37.6,29.53,SE,126,6.0,7.0,98,0.00,,SKC,0.00,VWS V14.01,2013-01-11 14:06:00,
2013-01-11 08:11:00,38.2,37.7,29.53,SE,128,2.0,8.0,98,0.00,,SKC,0.00,VWS V14.01,2013-01-11 14:11:00,
2013-01-11 08:16:00,38.3,37.8,29.53,SE,128,4.0,7.0,98,0.00,,SKC,0.00,VWS V14.01,2013-01-11 14:16:00,
2013-01-11 08:21:00,38.4,37.9,29.53,SE,127,5.0,7.0,98,0.00,,SKC,0.00,VWS V14.01,2013-01-11 14:21:00,
2013-01-11 08:27:00,38.4,37.9,29.51,SE,126,5.0,5.0,98,0.00,,SKC,0.00,VWS V14.01,2013-01-11 14:27:00,
2013-01-11 08:32:00,38.3,37.8,29.52,ESE,122,3.0,5.0,98,0.00,,SKC,0.00,VWS V14.01,2013-01-11 14:32:00,
2013-01-11 08:37:00,38.3,37.8,29.52,ESE,122,1.0,6.0,98,0.00,,SKC,0.00,VWS V14.01,2013-01-11 14:37:00,
2013-01-11 08:42:00,38.4,37.9,29.52,ESE,122,4.0,4.0,98,0.00,,SKC,0.00,VWS V14.01,2013-01-11 14:42:00,
2013-01-11 08:47:00,38.5,38.0,29.52,ESE,122,5.0,5.0,98,0.00,,SKC,0.00,VWS V14.01,2013-01-11 14:47:00,
2013-01-11 08:52:00,38.7,38.2,29.52,ESE,121,2.0,6.0,98,0.00,,SKC,0.00,VWS V14.01,2013-01-11 14:52:00,
2013-01-11 08:57:00,38.7,38.2,29.52,ESE,122,5.0,5.0,98,0.00,,SKC,0.00,VWS V14.01,2013-01-11 14:57:00,
2013-01-11 09:02:00,38.9,38.4,29.52,SE,126,4.0,7.0,98,0.00,,SKC,0.00,VWS V14.01,2013-01-11 15:02:00,
2013-01-11 09:07:00,39.1,38.6,29.51,SE,127,2.0,7.0,98,0.00,,SKC,0.00,VWS V14.01,2013-01-11 15:07:00,
2013-01-11 09:12:00,39.3,38.8,29.51,SE,128,2.0,5.0,98,0.00,,SKC,0.00,VWS V14.01,2013-01-11 15:12:00,
2013-01-11 09:17:00,39.3,38.8,29.51,SE,128,2.0,10.0,98,0.00,,SKC,0.00,VWS V14.01,2013-01-11 15:17:00,
2013-01-11 09:22:00,39.5,39.0,29.51,SE,129,4.0,7.0,98,0.00,,SKC,0.00,VWS V14.01,2013-01-11 15:22:00,
2013-01-11 09:27:00,39.6,39.1,29.51,SE,129,5.0,7.0,98,0.00,,SKC,0.00,VWS V14.01,2013-01-11 15:27:00,
2013-01-11 09:32:00,39.9,39.4,29.51,SE,130,5.0,6.0,98,0.00,,SKC,0.00,VWS V14.01,2013-01-11 15:32:00,
2013-01-11 09:37:00,40.2,39.7,29.51,SE,130,4.0,7.0,98,0.00,,SKC,0.00,VWS V14.01,2013-01-11 15:37:00,
2013-01-11 09:42:00,40.4,39.9,29.51,SE,130,5.0,5.0,98,0.00,,SKC,0.00,VWS V14.01,2013-01-11 15:42:00,
2013-01-11 09:47:00,40.5,40.0,29.51,SE,130,4.0,6.0,98,0.00,,SKC,0.00,VWS V14.01,2013-01-11 15:47:00,
2013-01-11 09:52:00,40.6,40.1,29.50,SE,130,4.0,5.0,98,0.00,,SKC,0.00,VWS V14.01,2013-01-11 15:52:00,
2013-01-11 09:57:00,40.5,40.0,29.50,SE,130,5.0,6.0,98,0.00,,SKC,0.00,VWS V14.01,2013-01-11 15:57:00,
2013-01-11 10:02:00,40.7,40.2,29.49,SE,130,3.0,8.0,98,0.00,,SKC,0.00,VWS V14.01,2013-01-11 16:02:00,
2013-01-11 10:07:00,40.8,40.3,29.49,SE,130,6.0,6.0,98,0.00,,SKC,0.00,VWS V14.01,2013-01-11 16:07:00,
2013-01-11 10:12:00,40.9,40.4,29.48,SE,130,4.0,6.0,98,0.00,,SKC,0.00,VWS V14.01,2013-01-11 16:12:00,
2013-01-11 10:17:00,41.1,40.6,29.48,SE,130,3.0,6.0,98,0.00,,SKC,0.00,VWS V14.01,2013-01-11 16:17:00,
2013-01-11 10:22:00,41.3,40.8,29.49,SE,132,10.0,10.0,98,0.00,,SKC,0.00,VWS V14.01,2013-01-11 16:22:00,
2013-01-11 10:28:00,41.4,40.9,29.48,SE,132,4.0,6.0,98,0.00,,SKC,0.00,VWS V14.01,2013-01-11 16:28:00,
2013-01-11 10:33:00,41.4,40.9,29.47,SE,133,4.0,5.0,98,0.00,,SKC,0.00,VWS V14.01,2013-01-11 16:33:00,
2013-01-11 10:38:00,41.5,41.0,29.48,SE,133,7.0,7.0,98,0.00,,SKC,0.00,VWS V14.01,2013-01-11 16:38:00,
2013-01-11 10:43:00,41.5,41.0,29.48,SE,134,4.0,6.0,98,0.00,,SKC,0.00,VWS V14.01,2013-01-11 16:43:00,
2013-01-11 10:48:00,41.7,41.2,29.48,SE,134,5.0,6.0,98,0.00,,SKC,0.00,VWS V14.01,2013-01-11 16:48:00,
2013-01-11 10:53:00,41.8,41.3,29.48,SE,134,1.0,2.0,98,0.00,,SKC,0.00,VWS V14.01,2013-01-11 16:53:00,
2013-01-11 10:58:00,41.8,41.3,29.48,SE,134,3.0,4.0,98,0.00,,SKC,0.00,VWS V14.01,2013-01-11 16:58:00,
2013-01-11 11:03:00,41.8,41.3,29.48,SE,134,3.0,4.0,98,0.00,,SKC,0.00,VWS V14.01,2013-01-11 17:03:00,
2013-01-11 11:08:00,41.9,41.4,29.48,SE,134,2.0,4.0,98,0.00,,SKC,0.00,VWS V14.01,2013-01-11 17:08:00,
2013-01-11 11:13:00,42.0,41.5,29.47,SE,134,5.0,5.0,98,0.00,,SKC,0.00,VWS V14.01,2013-01-11 17:13:00,
2013-01-11 11:18:00,42.1,41.6,29.47,SE,134,2.0,4.0,98,0.00,,SKC,0.00,VWS V14.01,2013-01-11 17:18:00,
2013-01-11 11:23:00,42.2,41.7,29.46,SE,134,5.0,5.0,98,0.00,,SKC,0.00,VWS V14.01,2013-01-11 17:23:00,
2013-01-11 11:28:00,42.4,41.9,29.46,SE,134,3.0,4.0,98,0.00,,SKC,0.00,VWS V14.01,2013-01-11 17:28:00,
2013-01-11 11:33:00,42.7,42.2,29.45,SE,134,3.0,4.0,98,0.00,,SKC,0.00,VWS V14.01,2013-01-11 17:33:00,
2013-01-11 11:38:00,42.8,42.3,29.45,SE,134,4.0,5.0,98,0.00,,SKC,0.00,VWS V14.01,2013-01-11 17:38:00,
2013-01-11 11:43:00,43.0,42.5,29.45,SE,134,4.0,5.0,98,0.00,,SKC,0.00,VWS V14.01,2013-01-11 17:43:00,
2013-01-11 11:48:00,43.3,43.0,29.45,SE,134,6.0,10.0,99,0.00,,SKC,0.00,VWS V14.01,2013-01-11 17:48:00,
2013-01-11 11:53:00,43.5,43.0,29.44,SE,136,8.0,9.0,98,0.00,,SKC,0.00,VWS V14.01,2013-01-11 17:53:00,
2013-01-11 11:58:00,43.6,43.3,29.44,SE,136,6.0,7.0,99,0.00,,SKC,0.00,VWS V14.01,2013-01-11 17:58:00,
2013-01-11 12:03:00,43.8,43.5,29.44,SE,137,5.0,5.0,99,0.00,,SKC,0.00,VWS V14.01,2013-01-11 18:03:00,
2013-01-11 12:08:00,44.0,43.7,29.44,SE,137,4.0,5.0,99,0.00,,SKC,0.00,VWS V14.01,2013-01-11 18:08:00,
2013-01-11 12:13:00,44.1,43.8,29.44,SE,137,4.0,6.0,99,0.00,,SKC,0.00,VWS V14.01,2013-01-11 18:13:00,
2013-01-11 12:18:00,44.3,44.0,29.44,SE,138,5.0,6.0,99,0.00,,SKC,0.00,VWS V14.01,2013-01-11 18:18:00,
2013-01-11 12:23:00,44.5,44.2,29.43,SE,138,3.0,4.0,99,0.00,,SKC,0.00,VWS V14.01,2013-01-11 18:23:00,
2013-01-11 12:28:00,44.6,44.3,29.43,SE,138,3.0,3.0,99,0.00,,SKC,0.00,VWS V14.01,2013-01-11 18:28:00,
2013-01-11 12:33:00,44.7,44.4,29.42,SE,138,1.0,5.0,99,0.00,,SKC,0.00,VWS V14.01,2013-01-11 18:33:00,
2013-01-11 12:38:00,44.9,44.6,29.41,SE,138,3.0,4.0,99,0.00,,SKC,0.00,VWS V14.01,2013-01-11 18:38:00,
2013-01-11 12:43:00,45.0,44.7,29.41,SE,138,1.0,4.0,99,0.00,,SKC,0.00,VWS V14.01,2013-01-11 18:43:00,
2013-01-11 12:48:00,45.1,44.8,29.42,SE,138,3.0,3.0,99,0.00,,SKC,0.00,VWS V14.01,2013-01-11 18:48:00,
2013-01-11 12:53:00,45.2,44.9,29.41,SE,138,2.0,2.0,99,0.00,,SKC,0.00,VWS V14.01,2013-01-11 18:53:00,
2013-01-11 12:58:00,45.4,45.1,29.41,SE,138,5.0,5.0,99,0.00,,SKC,0.00,VWS V14.01,2013-01-11 18:58:00,
2013-01-11 13:03:00,45.6,45.3,29.40,SE,138,1.0,5.0,99,0.00,,SKC,0.00,VWS V14.01,2013-01-11 19:03:00,
2013-01-11 13:08:00,45.8,45.5,29.40,SE,138,1.0,5.0,99,0.00,,SKC,0.00,VWS V14.01,2013-01-11 19:08:00,
2013-01-11 13:13:00,45.8,45.5,29.39,SE,138,3.0,5.0,99,0.00,,SKC,0.00,VWS V14.01,2013-01-11 19:13:00,
2013-01-11 13:18:00,45.8,45.5,29.38,SE,138,1.0,2.0,99,0.00,,SKC,0.00,VWS V14.01,2013-01-11 19:18:00,
2013-01-11 13:23:00,46.0,45.7,29.38,SE,138,4.0,4.0,99,0.00,,SKC,0.00,VWS V14.01,2013-01-11 19:23:00,
2013-01-11 13:28:00,46.2,45.9,29.38,SE,138,5.0,5.0,99,0.00,,SKC,0.00,VWS V14.01,2013-01-11 19:28:00,
2013-01-11 13:33:00,46.5,46.2,29.38,SE,138,3.0,8.0,99,0.00,,SKC,0.00,VWS V14.01,2013-01-11 19:33:00,
2013-01-11 13:38:00,46.9,46.6,29.38,SE,140,5.0,6.0,99,0.00,,SKC,0.00,VWS V14.01,2013-01-11 19:38:00,
2013-01-11 13:43:00,47.0,46.7,29.38,SE,143,5.0,7.0,99,0.00,,SKC,0.00,VWS V14.01,2013-01-11 19:43:00,
2013-01-11 13:48:00,47.1,46.8,29.37,SE,146,4.0,4.0,99,0.00,,SKC,0.00,VWS V14.01,2013-01-11 19:48:00,
2013-01-11 13:53:00,47.4,47.1,29.37,SSE,159,10.0,11.0,99,0.00,,SKC,0.00,VWS V14.01,2013-01-11 19:53:00,
2013-01-11 13:58:00,47.7,47.4,29.38,SSE,163,6.0,7.0,99,0.00,,SKC,0.00,VWS V14.01,2013-01-11 19:58:00,
2013-01-11 14:03:00,47.7,47.4,29.37,SSE,159,4.0,9.0,99,0.00,,SKC,0.00,VWS V14.01,2013-01-11 20:03:00,
2013-01-11 14:09:00,47.5,47.2,29.38,SSE,161,4.0,5.0,99,0.00,,SKC,0.00,VWS V14.01,2013-01-11 20:09:00,
2013-01-11 14:14:00,47.1,46.8,29.39,SSE,165,7.0,7.0,99,0.00,,SKC,0.00,VWS V14.01,2013-01-11 20:14:00,
2013-01-11 14:19:00,46.4,46.1,29.38,South,171,10.0,10.0,99,0.00,,SKC,0.00,VWS V14.01,2013-01-11 20:19:00,
2013-01-11 14:24:00,45.8,45.5,29.39,South,180,8.0,10.0,99,0.00,,SKC,0.00,VWS V14.01,2013-01-11 20:24:00,
2013-01-11 14:29:00,45.5,45.2,29.40,South,175,6.0,9.0,99,0.00,,SKC,0.00,VWS V14.01,2013-01-11 20:29:00,
2013-01-11 14:34:00,45.6,45.3,29.39,South,176,5.0,11.0,99,0.00,,SKC,0.00,VWS V14.01,2013-01-11 20:34:00,
2013-01-11 14:39:00,45.6,45.3,29.38,South,177,4.0,7.0,99,0.00,,SKC,0.00,VWS V14.01,2013-01-11 20:39:00,
2013-01-11 14:44:00,45.5,45.2,29.39,South,179,4.0,6.0,99,0.00,,SKC,0.00,VWS V14.01,2013-01-11 20:44:00,
2013-01-11 14:49:00,45.4,45.1,29.39,South,188,3.0,9.0,99,0.00,,SKC,0.00,VWS V14.01,2013-01-11 20:49:00,
2013-01-11 14:54:00,45.4,45.1,29.38,South,185,5.0,6.0,99,0.00,,SKC,0.00,VWS V14.01,2013-01-11 20:54:00,
2013-01-11 14:59:00,45.3,45.0,29.38,South,177,3.0,5.0,99,0.00,,SKC,0.00,VWS V14.01,2013-01-11 20:59:00,
2013-01-11 15:04:00,45.6,45.3,29.37,South,176,5.0,5.0,99,0.00,,SKC,0.00,VWS V14.01,2013-01-11 21:04:00,
2013-01-11 15:09:00,45.7,45.4,29.38,South,176,4.0,6.0,99,0.00,,SKC,0.00,VWS V14.01,2013-01-11 21:09:00,
2013-01-11 15:14:00,45.5,45.2,29.40,South,176,5.0,6.0,99,0.00,,SKC,0.00,VWS V14.01,2013-01-11 21:14:00,
2013-01-11 15:19:00,45.4,44.9,29.40,South,178,5.0,5.0,98,0.00,,SKC,0.00,VWS V14.01,2013-01-11 21:19:00,
2013-01-11 15:24:00,45.4,45.1,29.40,South,180,4.0,6.0,99,0.00,,SKC,0.00,VWS V14.01,2013-01-11 21:24:00,
2013-01-11 15:29:00,45.7,45.2,29.39,South,180,3.0,5.0,98,0.00,,SKC,0.00,VWS V14.01,2013-01-11 21:29:00,
2013-01-11 15:34:00,45.9,45.4,29.38,South,180,1.0,4.0,98,0.00,,SKC,0.00,VWS V14.01,2013-01-11 21:34:00,
2013-01-11 15:39:00,45.9,45.4,29.38,South,180,0.0,3.0,98,0.00,,SKC,0.00,VWS V14.01,2013-01-11 21:39:00,
2013-01-11 15:44:00,45.8,45.3,29.38,South,180,1.0,2.0,98,0.00,,SKC,0.00,VWS V14.01,2013-01-11 21:44:00,
2013-01-11 15:49:00,45.5,45.0,29.39,South,180,1.0,3.0,98,0.00,,SKC,0.00,VWS V14.01,2013-01-11 21:49:00,
2013-01-11 15:54:00,45.1,44.6,29.40,South,180,2.0,3.0,98,0.00,,SKC,0.00,VWS V14.01,2013-01-11 21:54:00,
2013-01-11 15:59:00,45.2,44.7,29.39,South,180,2.0,2.0,98,0.00,,SKC,0.00,VWS V14.01,2013-01-11 21:59:00,
2013-01-11 16:04:00,45.4,44.6,29.39,South,188,5.0,5.0,97,0.00,,SKC,0.00,VWS V14.01,2013-01-11 22:04:00,
2013-01-11 16:09:00,45.1,44.3,29.39,South,188,1.0,2.0,97,0.00,,SKC,0.00,VWS V14.01,2013-01-11 22:09:00,
2013-01-11 16:14:00,45.0,44.2,29.40,South,188,0.0,0.0,97,0.00,,SKC,0.00,VWS V14.01,2013-01-11 22:14:00,
2013-01-11 16:19:00,44.9,44.1,29.39,South,188,0.0,0.0,97,0.00,,SKC,0.00,VWS V14.01,2013-01-11 22:19:00,
2013-01-11 16:24:00,45.0,43.9,29.40,South,188,4.0,4.0,96,0.00,,SKC,0.00,VWS V14.01,2013-01-11 22:24:00,
2013-01-11 16:29:00,44.9,43.8,29.40,South,188,3.0,4.0,96,0.00,,SKC,0.00,VWS V14.01,2013-01-11 22:29:00,
2013-01-11 16:35:00,45.2,44.1,29.40,South,188,0.0,2.0,96,0.00,,SKC,0.00,VWS V14.01,2013-01-11 22:35:00,
2013-01-11 16:40:00,45.2,44.1,29.40,South,188,1.0,2.0,96,0.00,,SKC,0.00,VWS V14.01,2013-01-11 22:40:00,
2013-01-11 16:45:00,45.1,44.0,29.40,South,188,4.0,4.0,96,0.00,,SKC,0.00,VWS V14.01,2013-01-11 22:45:00,
2013-01-11 16:50:00,44.8,43.5,29.40,South,188,1.0,2.0,95,0.00,,SKC,0.00,VWS V14.01,2013-01-11 22:50:00,
2013-01-11 16:55:00,44.6,43.3,29.40,South,188,0.0,0.0,95,0.00,,SKC,0.00,VWS V14.01,2013-01-11 22:55:00,
2013-01-11 17:00:00,44.5,43.2,29.40,South,188,0.0,0.0,95,0.00,,SKC,0.00,VWS V14.01,2013-01-11 23:00:00,
2013-01-11 17:05:00,44.6,43.3,29.41,South,188,0.0,0.0,95,0.00,,SKC,0.00,VWS V14.01,2013-01-11 23:05:00,
2013-01-11 17:10:00,44.5,43.2,29.41,South,188,0.0,0.0,95,0.00,,SKC,0.00,VWS V14.01,2013-01-11 23:10:00,
2013-01-11 17:15:00,44.4,43.1,29.40,South,188,2.0,2.0,95,0.00,,SKC,0.00,VWS V14.01,2013-01-11 23:15:00,
2013-01-11 17:20:00,44.0,42.4,29.41,South,188,0.0,0.0,94,0.00,,SKC,0.00,VWS V14.01,2013-01-11 23:20:00,
2013-01-11 17:25:00,43.6,42.0,29.41,South,188,0.0,0.0,94,0.00,,SKC,0.00,VWS V14.01,2013-01-11 23:25:00,
2013-01-11 17:30:00,43.3,41.7,29.41,South,188,0.0,0.0,94,0.00,,SKC,0.00,VWS V14.01,2013-01-11 23:30:00,
2013-01-11 17:35:00,43.1,41.5,29.41,South,188,0.0,0.0,94,0.00,,SKC,0.00,VWS V14.01,2013-01-11 23:35:00,
2013-01-11 17:40:00,42.8,41.2,29.42,South,188,1.0,2.0,94,0.00,,SKC,0.00,VWS V14.01,2013-01-11 23:40:00,
2013-01-11 17:45:00,42.3,40.4,29.42,South,188,0.0,2.0,93,0.00,,SKC,0.00,VWS V14.01,2013-01-11 23:45:00,
2013-01-11 17:50:00,41.8,39.9,29.42,South,188,1.0,2.0,93,0.00,,SKC,0.00,VWS V14.01,2013-01-11 23:50:00,
2013-01-11 17:55:00,41.5,39.9,29.42,South,188,2.0,3.0,94,0.00,,SKC,0.00,VWS V14.01,2013-01-11 23:55:00,
2013-01-11 18:00:00,41.4,39.8,29.42,South,188,3.0,3.0,94,0.00,,SKC,0.00,VWS V14.01,2013-01-12 00:00:00,
2013-01-11 18:05:00,41.2,39.6,29.42,South,188,0.0,0.0,94,0.00,,SKC,0.00,VWS V14.01,2013-01-12 00:05:00,
2013-01-11 18:10:00,41.0,39.4,29.43,South,188,2.0,3.0,94,0.00,,SKC,0.00,VWS V14.01,2013-01-12 00:10:00,
2013-01-11 18:15:00,40.8,39.2,29.43,South,188,2.0,4.0,94,0.00,,SKC,0.00,VWS V14.01,2013-01-12 00:15:00,
2013-01-11 18:20:00,40.7,39.1,29.43,South,188,4.0,4.0,94,0.00,,SKC,0.00,VWS V14.01,2013-01-12 00:20:00,
2013-01-11 18:25:00,40.7,39.1,29.43,South,188,0.0,2.0,94,0.00,,SKC,0.00,VWS V14.01,2013-01-12 00:25:00,
2013-01-11 18:30:00,40.6,39.0,29.43,South,188,3.0,4.0,94,0.00,,SKC,0.00,VWS V14.01,2013-01-12 00:30:00,
2013-01-11 18:35:00,40.5,38.9,29.42,South,188,1.0,3.0,94,0.00,,SKC,0.00,VWS V14.01,2013-01-12 00:35:00,
2013-01-11 18:40:00,40.3,38.7,29.42,South,188,3.0,3.0,94,0.00,,SKC,0.00,VWS V14.01,2013-01-12 00:40:00,
2013-01-11 18:45:00,40.0,38.4,29.43,South,188,2.0,3.0,94,0.00,,SKC,0.00,VWS V14.01,2013-01-12 00:45:00,
2013-01-11 18:50:00,39.7,38.1,29.43,South,188,2.0,3.0,94,0.00,,SKC,0.00,VWS V14.01,2013-01-12 00:50:00,
2013-01-11 18:55:00,39.4,37.8,29.43,South,188,0.0,2.0,94,0.00,,SKC,0.00,VWS V14.01,2013-01-12 00:55:00,
2013-01-11 19:00:00,38.9,37.3,29.43,South,188,0.0,3.0,94,0.00,,SKC,0.00,VWS V14.01,2013-01-12 01:00:00,
2013-01-11 19:05:00,38.7,37.1,29.44,South,188,3.0,5.0,94,0.00,,SKC,0.00,VWS V14.01,2013-01-12 01:05:00,
2013-01-11 19:10:00,38.6,37.0,29.45,South,190,3.0,4.0,94,0.00,,SKC,0.00,VWS V14.01,2013-01-12 01:10:00,
2013-01-11 19:16:00,38.4,36.8,29.45,SSW,198,5.0,6.0,94,0.00,,SKC,0.00,VWS V14.01,2013-01-12 01:16:00,
2013-01-11 19:21:00,38.1,36.5,29.45,WSW,246,5.0,5.0,94,0.00,,SKC,0.00,VWS V14.01,2013-01-12 01:21:00,
2013-01-11 19:26:00,38.0,36.4,29.45,West,262,2.0,5.0,94,0.00,,SKC,0.00,VWS V14.01,2013-01-12 01:26:00,
2013-01-11 19:31:00,38.0,36.4,29.46,West,266,5.0,5.0,94,0.00,,SKC,0.00,VWS V14.01,2013-01-12 01:31:00,
2013-01-11 19:36:00,37.7,36.1,29.46,West,273,4.0,6.0,94,0.00,,SKC,0.00,VWS V14.01,2013-01-12 01:36:00,
2013-01-11 19:41:00,37.4,35.8,29.46,West,281,4.0,4.0,94,0.00,,SKC,0.00,VWS V14.01,2013-01-12 01:41:00,
2013-01-11 19:46:00,37.2,35.6,29.47,West,281,4.0,6.0,94,0.00,,SKC,0.00,VWS V14.01,2013-01-12 01:46:00,
2013-01-11 19:51:00,37.0,35.4,29.48,WNW,300,10.0,11.0,94,0.00,,SKC,0.00,VWS V14.01,2013-01-12 01:51:00,
2013-01-11 19:56:00,37.0,35.7,29.48,WNW,299,10.0,11.0,95,0.00,,SKC,0.00,VWS V14.01,2013-01-12 01:56:00,
2013-01-11 20:01:00,36.9,35.6,29.49,WNW,298,10.0,12.0,95,0.00,,SKC,0.00,VWS V14.01,2013-01-12 02:01:00,
2013-01-11 20:06:00,36.8,35.5,29.49,WNW,299,11.0,12.0,95,0.00,,SKC,0.00,VWS V14.01,2013-01-12 02:06:00,
2013-01-11 20:11:00,36.9,35.6,29.50,NW,313,10.0,12.0,95,0.00,,SKC,0.00,VWS V14.01,2013-01-12 02:11:00,
2013-01-11 20:16:00,36.9,35.6,29.51,NNW,336,16.0,16.0,95,0.00,,SKC,0.00,VWS V14.01,2013-01-12 02:16:00,
2013-01-11 20:21:00,36.3,35.0,29.51,NW,315,12.0,13.0,95,0.00,,SKC,0.00,VWS V14.01,2013-01-12 02:21:00,
2013-01-11 20:26:00,35.7,34.4,29.51,NW,315,13.0,16.0,95,0.00,,SKC,0.00,VWS V14.01,2013-01-12 02:26:00,
2013-01-11 20:31:00,35.3,34.0,29.52,NW,317,14.0,15.0,95,0.00,,SKC,0.00,VWS V14.01,2013-01-12 02:31:00,
2013-01-11 20:36:00,34.9,33.6,29.52,NW,320,15.0,18.0,95,0.00,,SKC,0.00,VWS V14.01,2013-01-12 02:36:00,
2013-01-11 20:41:00,34.5,33.0,29.51,NW,317,13.0,14.0,94,0.00,,SKC,0.00,VWS V14.01,2013-01-12 02:41:00,
2013-01-11 20:46:00,34.3,33.0,29.51,NW,317,10.0,15.0,95,0.00,,SKC,0.00,VWS V14.01,2013-01-12 02:46:00,
2013-01-11 20:51:00,34.1,32.8,29.52,WNW,292,11.0,12.0,95,0.00,,SKC,0.00,VWS V14.01,2013-01-12 02:51:00,
2013-01-11 20:56:00,34.0,32.7,29.54,WNW,294,12.0,14.0,95,0.00,,SKC,0.00,VWS V14.01,2013-01-12 02:56:00,
2013-01-11 21:01:00,33.9,32.6,29.57,WNW,294,12.0,14.0,95,0.00,,SKC,0.00,VWS V14.01,2013-01-12 03:01:00,
2013-01-11 21:06:00,33.8,32.5,29.58,WNW,301,14.0,17.0,95,0.00,,SKC,0.00,VWS V14.01,2013-01-12 03:06:00,
2013-01-11 21:11:00,33.8,32.5,29.59,WNW,292,10.0,16.0,95,0.00,,SKC,0.00,VWS V14.01,2013-01-12 03:11:00,
2013-01-11 21:16:00,33.9,32.6,29.59,West,278,17.0,17.0,95,0.00,,SKC,0.00,VWS V14.01,2013-01-12 03:16:00,
2013-01-11 21:21:00,33.9,32.6,29.59,NW,314,16.0,17.0,95,0.00,,SKC,0.00,VWS V14.01,2013-01-12 03:21:00,
2013-01-11 21:26:00,33.8,32.5,29.60,WNW,290,16.0,19.0,95,0.00,,SKC,0.00,VWS V14.01,2013-01-12 03:26:00,
2013-01-11 21:31:00,33.5,32.0,29.61,WNW,291,13.0,19.0,94,0.00,,SKC,0.00,VWS V14.01,2013-01-12 03:31:00,
2013-01-11 21:37:00,33.4,31.9,29.62,NW,310,20.0,20.0,94,0.00,,SKC,0.00,VWS V14.01,2013-01-12 03:37:00,
2013-01-11 21:42:00,33.4,31.9,29.62,West,273,15.0,20.0,94,0.00,,SKC,0.00,VWS V14.01,2013-01-12 03:42:00,
2013-01-11 21:47:00,33.2,31.4,29.63,WNW,302,21.0,25.0,93,0.00,,SKC,0.00,VWS V14.01,2013-01-12 03:47:00,
2013-01-11 21:52:00,32.5,30.4,29.64,West,277,21.0,26.0,92,0.00,,SKC,0.00,VWS V14.01,2013-01-12 03:52:00,
2013-01-11 21:57:00,32.2,30.1,29.65,WNW,287,21.0,26.0,92,0.00,,SKC,0.00,VWS V14.01,2013-01-12 03:57:00,
2013-01-11 22:02:00,31.9,29.6,29.65,West,281,15.0,17.0,91,0.00,,SKC,0.00,VWS V14.01,2013-01-12 04:02:00,
2013-01-11 22:07:00,31.4,29.1,29.66,WNW,290,20.0,20.0,91,0.00,,SKC,0.00,VWS V14.01,2013-01-12 04:07:00,
2013-01-11 22:12:00,31.1,28.5,29.66,West,272,19.0,30.0,90,0.00,,SKC,0.00,VWS V14.01,2013-01-12 04:12:00,
2013-01-11 22:17:00,30.8,28.2,29.67,West,271,22.0,26.0,90,0.00,,SKC,0.00,VWS V14.01,2013-01-12 04:17:00,
2013-01-11 22:22:00,30.6,27.8,29.67,WNW,290,17.0,20.0,89,0.00,,SKC,0.00,VWS V14.01,2013-01-12 04:22:00,
2013-01-11 22:27:00,30.5,27.6,29.68,WNW,300,15.0,15.0,89,0.00,,SKC,0.00,VWS V14.01,2013-01-12 04:27:00,
2013-01-11 22:32:00,30.4,27.3,29.68,WNW,291,14.0,15.0,88,0.00,,SKC,0.00,VWS V14.01,2013-01-12 04:32:00,
2013-01-11 22:37:00,30.2,27.1,29.68,WNW,288,22.0,22.0,88,0.00,,SKC,0.00,VWS V14.01,2013-01-12 04:37:00,
2013-01-11 22:43:00,29.8,26.4,29.69,WNW,283,16.0,16.0,87,0.00,,SKC,0.00,VWS V14.01,2013-01-12 04:43:00,
2013-01-11 22:48:00,29.6,25.9,29.69,West,279,12.0,12.0,86,0.00,,SKC,0.00,VWS V14.01,2013-01-12 04:48:00,
2013-01-11 22:53:00,29.5,25.8,29.69,WNW,303,15.0,26.0,86,0.00,,SKC,0.00,VWS V14.01,2013-01-12 04:53:00,
2013-01-11 22:58:00,29.3,25.4,29.70,WNW,283,16.0,16.0,85,0.00,,SKC,0.00,VWS V14.01,2013-01-12 04:58:00,
2013-01-11 23:00:00,29.3,25.4,29.70,West,279,23.0,23.0,85,0.00,,SKC,0.00,VWS V14.01,2013-01-12 05:00:00,
2013-01-11 23:02:00,29.2,25.0,29.71,WNW,288,25.0,25.0,84,0.00,,SKC,0.00,VWS V14.01,2013-01-12 05:02:00,
2013-01-11 23:03:00,29.2,25.0,29.72,WNW,291,21.0,25.0,84,0.00,,SKC,0.00,VWS V14.01,2013-01-12 05:03:00,
2013-01-11 23:08:00,29.0,24.5,29.71,WNW,298,14.0,18.0,83,0.00,,SKC,0.00,VWS V14.01,2013-01-12 05:08:00,
2013-01-11 23:13:00,28.8,24.3,29.72,WNW,288,22.0,24.0,83,0.00,,SKC,0.00,VWS V14.01,2013-01-12 05:13:00,
2013-01-11 23:18:00,28.6,24.1,29.72,WNW,293,20.0,20.0,83,0.00,,SKC,0.00,VWS V14.01,2013-01-12 05:18:00,
2013-01-11 23:23:00,28.5,24.0,29.73,WNW,283,16.0,16.0,83,0.00,,SKC,0.00,VWS V14.01,2013-01-12 05:23:00,
2013-01-11 23:28:00,28.4,23.9,29.73,WNW,298,15.0,26.0,83,0.00,,SKC,0.00,VWS V14.01,2013-01-12 05:28:00,
2013-01-11 23:33:00,28.2,23.7,29.74,WNW,290,23.0,23.0,83,0.00,,SKC,0.00,VWS V14.01,2013-01-12 05:33:00,
2013-01-11 23:38:00,28.1,23.6,29.75,West,273,23.0,23.0,83,0.00,,SKC,0.00,VWS V14.01,2013-01-12 05:38:00,
2013-01-11 23:43:00,27.9,23.4,29.75,West,279,21.0,23.0,83,0.00,,SKC,0.00,VWS V14.01,2013-01-12 05:43:00,
2013-01-11 23:48:00,27.7,23.2,29.76,West,279,19.0,25.0,83,0.00,,SKC,0.00,VWS V14.01,2013-01-12 05:48:00,
2013-01-11 23:53:00,27.6,23.1,29.77,WNW,293,16.0,25.0,83,0.00,,SKC,0.00,VWS V14.01,2013-01-12 05:53:00,
2013-01-11 23:58:00,27.0,21.7,29.78,WNW,297,17.0,22.0,80,0.00,,SKC,0.00,VWS V14.01,2013-01-12 05:58:00,